Location: St. Louis
(38.6270°N, 90.1994°W)
Time: 23:27:24
(UTC-06:00)

Vanguard 1 - Pass Details

Date: 02 December 2021
Orbit: 652 x 3830 km, 34.2° (Epoch: 21 January)

Event Time Altitude Azimuth Distance (km) Brightness Sun altitude
Rises 00:23:56 0° 240° (WSW) 7,335 - -71.9°
Reaches altitude 10° 00:28:30 10° 238° (WSW) 6,562 - -71.5°
Maximum altitude 00:51:22 68° 161° (SSE) 3,933 - -68.8°
Exits shadow 01:02:32 37° 93° (E) 4,504 13.3 -67.3°
Drops below altitude 10° 01:10:54 10° 84° (E) 5,759 14.1 -66.0°
Sets 01:14:35 0° 82° (E) 6,445 14.5 -65.5°
